"Period start","avg(HW err(1)/warn(2) (#))","avg(Visibility (m))","avg(Weather code (#))","avg(Precip intensity (mm/h))","min(HW err(1)/warn(2) (#))","max(HW err(1)/warn(2) (#))","std(HW err(1)/warn(2) (#))","med(HW err(1)/warn(2) (#))","min(Visibility (m))","max(Visibility (m))","std(Visibility (m))","med(Visibility (m))","min(Weather code (#))","max(Weather code (#))","std(Weather code (#))","med(Weather code (#))","min(Precip intensity (mm/h))","max(Precip intensity (mm/h))","std(Precip intensity (mm/h))","med(Precip intensity (mm/h))"
2017-07-31 00:00:00,0,37021,0,0.00,0,0,0,0,23359,50000,9507,38616,0,0,0,0,0.00,0.00,0.00,0.00
2017-07-31 00:10:00,0,36824,0,0.00,0,0,0,0,29265,46238,6221,33545,0,0,0,0,0.00,0.00,0.00,0.00
2017-07-31 00:20:00,0,39678,0,0.00,0,0,0,0,31226,48049,5449,41291,0,0,0,0,0.00,0.00,0.00,0.00
2017-07-31 00:30:00,0,30851,0,0.00,0,0,0,0,16897,45150,8352,32135,0,0,0,0,0.00,0.00,0.00,0.00
2017-07-31 00:40:00,0,39934,0,0.00,0,0,0,0,33303,46509,3546,39788,0,0,0,0,0.00,0.00,0.00,0.00
2017-07-31 00:50:00,0,41509,0,0.00,0,0,0,0,32910,48695,4482,41554,0,0,0,0,0.00,0.00,0.00,0.00
2017-07-31 01:00:00,0,40187,0,0.00,0,0,0,0,26869,50000,7080,40232,0,0,0,0,0.00,0.00,0.00,0.00
2017-07-31 01:10:00,0,42955,0,0.00,0,0,0,0,38730,50000,3749,42809,0,0,0,0,0.00,0.00,0.00,0.00
2017-07-31 01:20:00,0,43333,0,0.00,0,0,0,0,35381,50000,4748,43846,0,0,0,0,0.00,0.00,0.00,0.00
2017-07-31 01:30:00,0,41327,0,0.00,0,0,0,0,36855,50000,4358,39925,0,0,0,0,0.00,0.00,0.00,0.00
2017-07-31 01:40:00,0,37305,0,0.00,0,0,0,0,26763,48388,7109,36666,0,0,0,0,0.00,0.00,0.00,0.00
2017-07-31 01:50:00,0,44302,0,0.00,0,0,0,0,36353,50000,3770,45472,0,0,0,0,0.00,0.00,0.00,0.00
2017-07-31 02:00:00,0,38682,0,0.00,0,0,0,0,28448,47718,6174,39730,0,0,0,0,0.00,0.00,0.00,0.00
2017-07-31 02:10:00,0,41309,0,0.00,0,0,0,0,32594,49886,5766,41836,0,0,0,0,0.00,0.00,0.00,0.00
2017-07-31 02:20:00,0,43328,0,0.00,0,0,0,0,35982,50000,5270,43771,0,0,0,0,0.00,0.00,0.00,0.00
2017-07-31 02:30:00,0,35761,0,0.00,0,0,0,0,29621,45853,5161,35054,0,0,0,0,0.00,0.00,0.00,0.00
2017-07-31 02:40:00,0,35879,0,0.00,0,0,0,0,25165,45208,6040,36798,0,0,0,0,0.00,0.00,0.00,0.00
2017-07-31 02:50:00,0,40833,0,0.00,0,0,0,0,28916,50000,7927,40584,0,0,0,0,0.00,0.00,0.00,0.00
2017-07-31 03:00:00,0,41546,0,0.00,0,0,0,0,31626,49589,5842,40952,0,0,0,0,0.00,0.00,0.00,0.00
2017-07-31 03:10:00,0,32454,0,0.00,0,0,0,0,22186,50000,7255,31130,0,0,0,0,0.00,0.00,0.00,0.00
2017-07-31 03:20:00,0,40434,0,0.00,0,0,0,0,31290,50000,6609,40853,0,0,0,0,0.00,0.00,0.00,0.00
2017-07-31 03:30:00,0,33541,0,0.00,0,0,0,0,26636,46000,6032,32213,0,0,0,0,0.00,0.00,0.00,0.00
2017-07-31 03:40:00,0,36271,0,0.00,0,0,0,0,18351,50000,10427,37966,0,0,0,0,0.00,0.00,0.00,0.00
2017-07-31 03:50:00,0,38534,0,0.00,0,0,0,0,19271,48638,9716,42244,0,0,0,0,0.00,0.00,0.00,0.00
2017-07-31 04:00:00,0,37065,0,0.00,0,0,0,0,25066,46065,6479,37884,0,0,0,0,0.00,0.00,0.00,0.00
2017-07-31 04:10:00,0,42734,0,0.00,0,0,0,0,30346,50000,6702,42788,0,0,0,0,0.00,0.00,0.00,0.00
2017-07-31 04:20:00,0,40295,0,0.00,0,0,0,0,27231,50000,8585,41131,0,0,0,0,0.00,0.00,0.00,0.00
2017-07-31 04:30:00,0,36604,0,0.00,0,0,0,0,30282,45032,4369,35322,0,0,0,0,0.00,0.00,0.00,0.00
2017-07-31 04:40:00,0,45066,0,0.00,0,0,0,0,37869,50000,4115,45027,0,0,0,0,0.00,0.00,0.00,0.00
2017-07-31 04:50:00,0,46999,0,0.00,0,0,0,0,40741,50000,2919,47348,0,0,0,0,0.00,0.00,0.00,0.00
2017-07-31 05:00:00,0,42628,0,0.00,0,0,0,0,29313,50000,7087,45092,0,0,0,0,0.00,0.00,0.00,0.00
2017-07-31 05:10:00,0,45672,0,0.00,0,0,0,0,38643,50000,3978,45392,0,0,0,0,0.00,0.00,0.00,0.00
2017-07-31 05:20:00,0,48293,0,0.00,0,0,0,0,40370,50000,3385,50000,0,0,0,0,0.00,0.00,0.00,0.00
2017-07-31 05:30:00,0,44118,0,0.00,0,0,0,0,28021,50000,6512,45300,0,0,0,0,0.00,0.00,0.00,0.00
2017-07-31 05:40:00,0,42714,0,0.00,0,0,0,0,33559,49402,5912,44896,0,0,0,0,0.00,0.00,0.00,0.00
2017-07-31 05:50:00,0,43528,0,0.00,0,0,0,0,37715,50000,3660,43655,0,0,0,0,0.00,0.00,0.00,0.00
2017-07-31 06:00:00,0,45436,0,0.00,0,0,0,0,40405,49371,3231,46396,0,0,0,0,0.00,0.00,0.00,0.00
2017-07-31 06:10:00,0,46922,0,0.00,0,0,0,0,38404,50000,3348,46900,0,0,0,0,0.00,0.00,0.00,0.00
2017-07-31 06:20:00,0,38326,0,0.00,0,0,0,0,32627,46558,4566,36852,0,0,0,0,0.00,0.00,0.00,0.00
2017-07-31 06:30:00,0,42730,0,0.00,0,0,0,0,33587,50000,6210,45182,0,0,0,0,0.00,0.00,0.00,0.00
2017-07-31 06:40:00,0,38207,0,0.00,0,0,0,0,34237,44623,3472,36457,0,0,0,0,0.00,0.00,0.00,0.00
2017-07-31 06:50:00,0,36135,0,0.00,0,0,0,0,24095,47233,6169,36638,0,0,0,0,0.00,0.00,0.00,0.00
2017-07-31 07:00:00,0,35918,0,0.00,0,0,0,0,29089,40215,2980,36826,0,0,0,0,0.00,0.00,0.00,0.00
2017-07-31 07:10:00,0,37028,0,0.00,0,0,0,0,29283,43155,4358,37946,0,0,0,0,0.00,0.00,0.00,0.00
2017-07-31 07:20:00,0,36920,0,0.00,0,0,0,0,29877,42450,4049,38081,0,0,0,0,0.00,0.00,0.00,0.00
2017-07-31 07:30:00,0,33575,0,0.00,0,0,0,0,23763,46091,5639,31854,0,0,0,0,0.00,0.00,0.00,0.00
2017-07-31 07:40:00,0,25856,0,0.00,0,0,0,0,19389,36300,5060,24701,0,0,0,0,0.00,0.00,0.00,0.00
2017-07-31 07:50:00,0,24240,0,0.00,0,0,0,0,20022,29414,2918,23982,0,0,0,0,0.00,0.00,0.00,0.00
2017-07-31 08:00:00,0,28190,0,0.00,0,0,0,0,16375,42906,7458,25990,0,0,0,0,0.00,0.00,0.00,0.00
2017-07-31 08:10:00,0,43653,0,0.00,0,0,0,0,40564,50000,2609,43323,0,0,0,0,0.00,0.00,0.00,0.00
2017-07-31 08:20:00,0,44709,0,0.00,0,0,0,0,33347,50000,5087,46311,0,0,0,0,0.00,0.00,0.00,0.00
2017-07-31 08:30:00,0,43379,0,0.00,0,0,0,0,39208,50000,3692,42194,0,0,0,0,0.00,0.00,0.00,0.00
2017-07-31 08:40:00,0,47060,0,0.00,0,0,0,0,42202,50000,2387,47339,0,0,0,0,0.00,0.00,0.00,0.00
2017-07-31 08:50:00,0,49005,0,0.00,0,0,0,0,44951,50000,1911,50000,0,0,0,0,0.00,0.00,0.00,0.00
2017-07-31 09:00:00,0,49818,0,0.00,0,0,0,0,49089,50000,307,50000,0,0,0,0,0.00,0.00,0.00,0.00
2017-07-31 09:10:00,0,49849,0,0.00,0,0,0,0,48494,50000,452,50000,0,0,0,0,0.00,0.00,0.00,0.00
2017-07-31 09:20:00,0,49656,0,0.00,0,0,0,0,48271,50000,614,50000,0,0,0,0,0.00,0.00,0.00,0.00
2017-07-31 09:30:00,0,48762,0,0.00,0,0,0,0,45989,50000,1388,49038,0,0,0,0,0.00,0.00,0.00,0.00
2017-07-31 09:40:00,0,48079,0,0.00,0,0,0,0,41247,50000,3243,49768,0,0,0,0,0.00,0.00,0.00,0.00
2017-07-31 09:50:00,0,49947,0,0.00,0,0,0,0,49474,50000,158,50000,0,0,0,0,0.00,0.00,0.00,0.00
2017-07-31 10:00:00,0,49970,0,0.00,0,0,0,0,49705,50000,88,50000,0,0,0,0,0.00,0.00,0.00,0.00
2017-07-31 10:10:00,0,49790,0,0.00,0,0,0,0,48369,50000,485,50000,0,0,0,0,0.00,0.00,0.00,0.00
2017-07-31 10:20:00,0,49677,0,0.00,0,0,0,0,47332,50000,800,50000,0,0,0,0,0.00,0.00,0.00,0.00
2017-07-31 10:30:00,0,49744,0,0.00,0,0,0,0,48306,50000,498,50000,0,0,0,0,0.00,0.00,0.00,0.00
2017-07-31 10:40:00,0,43207,0,0.00,0,0,0,0,13952,50000,11338,49340,0,0,0,0,0.00,0.00,0.00,0.00
2017-07-31 10:50:00,0,49155,0,0.00,0,0,0,0,45354,50000,1485,50000,0,0,0,0,0.00,0.00,0.00,0.00
2017-07-31 11:00:00,0,49487,0,0.00,0,0,0,0,47236,50000,1029,50000,0,0,0,0,0.00,0.00,0.00,0.00
2017-07-31 11:10:00,0,49947,0,0.00,0,0,0,0,49470,50000,159,50000,0,0,0,0,0.00,0.00,0.00,0.00
2017-07-31 11:20:00,0,50000,0,0.00,0,0,0,0,50000,50000,0,50000,0,0,0,0,0.00,0.00,0.00,0.00
2017-07-31 11:30:00,0,50000,0,0.00,0,0,0,0,50000,50000,0,50000,0,0,0,0,0.00,0.00,0.00,0.00
2017-07-31 11:40:00,0,45648,0,0.00,0,0,0,0,31479,50000,6878,49438,0,0,0,0,0.00,0.00,0.00,0.00
2017-07-31 11:50:00,0,49868,0,0.00,0,0,0,0,49441,50000,213,50000,0,0,0,0,0.00,0.00,0.00,0.00
2017-07-31 12:00:00,0,44335,0,0.00,0,0,0,0,23221,50000,8970,50000,0,0,0,0,0.00,0.00,0.00,0.00
2017-07-31 12:10:00,0,47950,0,0.00,0,0,0,0,34704,50000,4610,50000,0,0,0,0,0.00,0.00,0.00,0.00
2017-07-31 12:20:00,0,42957,0,0.00,0,0,0,0,25690,50000,9296,49356,0,0,0,0,0.00,0.00,0.00,0.00
2017-07-31 12:30:00,0,49354,0,0.00,0,0,0,0,47107,50000,943,49872,0,0,0,0,0.00,0.00,0.00,0.00
2017-07-31 12:40:00,0,46361,0,0.00,0,0,0,0,43384,50000,2446,45474,0,0,0,0,0.00,0.00,0.00,0.00
2017-07-31 12:50:00,0,46552,0,0.00,0,0,0,0,43870,49397,1410,46530,0,0,0,0,0.00,0.00,0.00,0.00
2017-07-31 13:00:00,0,47905,0,0.00,0,0,0,0,42992,50000,2555,49354,0,0,0,0,0.00,0.00,0.00,0.00
2017-07-31 13:10:00,0,49351,0,0.00,0,0,0,0,47830,50000,848,50000,0,0,0,0,0.00,0.00,0.00,0.00
2017-07-31 13:20:00,0,46505,0,0.00,0,0,0,0,41725,50000,2966,47741,0,0,0,0,0.00,0.00,0.00,0.00
2017-07-31 13:30:00,0,46808,0,0.00,0,0,0,0,43417,50000,2620,47080,0,0,0,0,0.00,0.00,0.00,0.00
2017-07-31 13:40:00,0,48203,0,0.00,0,0,0,0,43881,50000,2472,50000,0,0,0,0,0.00,0.00,0.00,0.00
2017-07-31 13:50:00,0,45940,0,0.00,0,0,0,0,42702,50000,2486,44912,0,0,0,0,0.00,0.00,0.00,0.00
2017-07-31 14:00:00,0,43767,0,0.00,0,0,0,0,37675,50000,4338,42350,0,0,0,0,0.00,0.00,0.00,0.00
2017-07-31 14:10:00,0,37555,0,0.00,0,0,0,0,15035,46856,9021,39908,0,0,0,0,0.00,0.00,0.00,0.00
2017-07-31 14:20:00,0,47004,0,0.00,0,0,0,0,41109,50000,3377,48905,0,0,0,0,0.00,0.00,0.00,0.00
2017-07-31 14:30:00,0,43891,0,0.00,0,0,0,0,36813,47290,3386,45098,0,0,0,0,0.00,0.00,0.00,0.00
2017-07-31 14:40:00,0,46039,18,0.03,0,0,0,0,41206,50000,2399,46876,0,61,28,0,0.00,0.30,0.09,0.00
2017-07-31 14:50:00,0,40200,49,0.02,0,0,0,0,33075,49473,6180,42092,0,61,24,61,0.00,0.15,0.05,0.00
2017-07-31 15:00:00,0,43522,0,0.00,0,0,0,0,38415,50000,3701,43529,0,0,0,0,0.00,0.00,0.00,0.00
2017-07-31 15:10:00,0,37191,0,0.00,0,0,0,0,32622,46613,4387,35806,0,0,0,0,0.00,0.00,0.00,0.00
2017-07-31 15:20:00,0,40317,0,0.00,0,0,0,0,35650,45332,3193,39478,0,0,0,0,0.00,0.00,0.00,0.00
2017-07-31 15:30:00,0,42227,0,0.00,0,0,0,0,35229,48454,3577,42230,0,0,0,0,0.00,0.00,0.00,0.00
2017-07-31 15:40:00,0,38289,0,0.00,0,0,0,0,34813,40401,1786,38565,0,0,0,0,0.00,0.00,0.00,0.00
2017-07-31 15:50:00,0,39718,0,0.00,0,0,0,0,31372,46321,4172,39525,0,0,0,0,0.00,0.00,0.00,0.00
2017-07-31 16:00:00,0,47532,0,0.00,0,0,0,0,42261,50000,2343,47770,0,0,0,0,0.00,0.00,0.00,0.00
2017-07-31 16:10:00,0,47967,0,0.00,0,0,0,0,43769,50000,2234,48845,0,0,0,0,0.00,0.00,0.00,0.00
2017-07-31 16:20:00,0,49247,0,0.00,0,0,0,0,43754,50000,1871,50000,0,0,0,0,0.00,0.00,0.00,0.00
2017-07-31 16:30:00,0,49602,0,0.00,0,0,0,0,46456,50000,1056,50000,0,0,0,0,0.00,0.00,0.00,0.00
2017-07-31 16:40:00,0,49396,0,0.00,0,0,0,0,46463,50000,1209,50000,0,0,0,0,0.00,0.00,0.00,0.00
2017-07-31 16:50:00,0,49902,0,0.00,0,0,0,0,49017,50000,295,50000,0,0,0,0,0.00,0.00,0.00,0.00
2017-07-31 17:00:00,0,50000,0,0.00,0,0,0,0,50000,50000,0,50000,0,0,0,0,0.00,0.00,0.00,0.00
2017-07-31 17:10:00,0,50000,0,0.00,0,0,0,0,50000,50000,0,50000,0,0,0,0,0.00,0.00,0.00,0.00
2017-07-31 17:20:00,0,50000,0,0.00,0,0,0,0,50000,50000,0,50000,0,0,0,0,0.00,0.00,0.00,0.00
2017-07-31 17:30:00,0,49679,0,0.00,0,0,0,0,47797,50000,696,50000,0,0,0,0,0.00,0.00,0.00,0.00
2017-07-31 17:40:00,0,50000,0,0.00,0,0,0,0,50000,50000,0,50000,0,0,0,0,0.00,0.00,0.00,0.00
2017-07-31 17:50:00,0,49830,0,0.00,0,0,0,0,48300,50000,510,50000,0,0,0,0,0.00,0.00,0.00,0.00
2017-07-31 18:00:00,0,48765,0,0.00,0,0,0,0,43713,50000,2037,49916,0,0,0,0,0.00,0.00,0.00,0.00
2017-07-31 18:10:00,0,39426,33,0.08,0,0,0,0,35991,45989,3103,38274,0,61,27,51,0.00,0.25,0.09,0.08
2017-07-31 18:20:00,0,40779,59,0.65,0,0,0,0,35500,46777,4279,40228,51,61,4,61,0.10,1.45,0.45,0.50
2017-07-31 18:30:00,0,39378,54,0.49,0,0,0,0,33609,49738,4756,38064,51,61,5,51,0.05,1.00,0.35,0.40
2017-07-31 18:40:00,0,43986,52,0.47,0,0,0,0,39508,50000,3348,44564,51,61,3,51,0.20,1.25,0.31,0.35
2017-07-31 18:50:00,0,38175,61,0.62,0,0,0,0,32069,45886,4036,38454,61,61,0,61,0.15,1.75,0.46,0.40
2017-07-31 19:00:00,0,38301,59,0.67,0,0,0,0,30199,44686,4265,38432,51,61,4,61,0.10,1.80,0.56,0.48
2017-07-31 19:10:00,0,47906,52,0.30,0,0,0,0,39129,50000,4108,50000,51,61,3,51,0.00,1.20,0.35,0.17
2017-07-31 19:20:00,0,44238,44,0.14,0,0,0,0,36150,50000,4276,45114,0,61,22,51,0.00,0.35,0.14,0.08
2017-07-31 19:30:00,0,43514,0,0.00,0,0,0,0,40855,45915,1740,43716,0,0,0,0,0.00,0.00,0.00,0.00
2017-07-31 19:40:00,0,48403,0,0.00,0,0,0,0,44637,50000,2008,49566,0,0,0,0,0.00,0.00,0.00,0.00
2017-07-31 19:50:00,0,45269,0,0.00,0,0,0,0,41911,50000,3052,44604,0,0,0,0,0.00,0.00,0.00,0.00
2017-07-31 20:00:00,0,49192,0,0.00,0,0,0,0,46896,50000,1127,49838,0,0,0,0,0.00,0.00,0.00,0.00
2017-07-31 20:10:00,0,46606,44,0.03,0,0,0,0,41419,50000,3509,47836,0,61,22,51,0.00,0.10,0.03,0.03
2017-07-31 20:20:00,0,44448,54,0.14,0,0,0,0,35489,50000,4527,44353,51,61,5,51,0.00,0.45,0.13,0.08
2017-07-31 20:30:00,0,37265,51,0.39,0,0,0,0,26898,50000,5915,37550,51,51,0,51,0.20,0.65,0.14,0.40
2017-07-31 20:40:00,0,31469,51,0.41,0,0,0,0,23147,41607,5821,32706,51,51,0,51,0.15,0.75,0.19,0.40
2017-07-31 20:50:00,0,34571,51,0.40,0,0,0,0,23017,48014,7162,34848,51,51,0,51,0.10,0.65,0.18,0.40
2017-07-31 21:00:00,0,28612,55,1.03,0,0,0,0,20914,41800,6924,24369,51,61,5,52,0.35,2.75,0.66,0.82
2017-07-31 21:10:00,0,28296,54,1.02,0,0,0,0,24903,33135,2427,27921,52,61,4,52,0.65,1.25,0.21,1.08
2017-07-31 21:20:00,0,23508,61,3.35,0,0,0,0,17017,35164,6119,21752,61,61,0,61,0.90,9.90,2.65,2.45
2017-07-31 21:30:00,0,17919,61,4.65,0,0,0,0,14990,20343,1785,18334,61,62,0,61,1.40,13.65,3.37,4.05
2017-07-31 21:40:00,0,21314,61,1.86,0,0,0,0,17279,28614,3513,20036,61,61,0,61,0.50,6.00,1.48,1.45
2017-07-31 21:50:00,0,16121,60,1.79,0,0,0,0,13244,18287,1739,16532,52,61,3,61,0.50,3.15,0.85,1.65
2017-07-31 22:00:00,0,17766,59,1.33,0,0,0,0,14943,19595,1482,18320,52,61,4,61,0.30,5.65,1.49,0.85
2017-07-31 22:10:00,0,20529,56,0.42,0,0,0,0,17359,22510,1600,20634,51,61,5,56,0.20,0.70,0.15,0.40
2017-07-31 22:20:00,0,28558,46,0.07,0,0,0,0,21958,33825,3402,29094,0,51,15,51,0.00,0.15,0.04,0.05
2017-07-31 22:30:00,0,28163,0,0.00,0,0,0,0,26103,31984,1750,28019,0,0,0,0,0.00,0.00,0.00,0.00
2017-07-31 22:40:00,0,27786,0,0.00,0,0,0,0,22003,32825,3401,27132,0,0,0,0,0.00,0.00,0.00,0.00
2017-07-31 22:50:00,0,31482,0,0.00,0,0,0,0,23569,39799,4738,31631,0,0,0,0,0.00,0.00,0.00,0.00
2017-07-31 23:00:00,0,32953,0,0.00,0,0,0,0,29114,37888,2315,33019,0,0,0,0,0.00,0.00,0.00,0.00
2017-07-31 23:10:00,0,31073,0,0.00,0,0,0,0,27655,37160,2584,30688,0,0,0,0,0.00,0.00,0.00,0.00
2017-07-31 23:20:00,0,34790,6,0.01,0,0,0,0,25721,43253,4644,35784,0,61,18,0,0.00,0.05,0.02,0.00
2017-07-31 23:30:00,0,31539,52,0.39,0,0,0,0,25093,36392,3795,32037,51,61,3,51,0.05,0.95,0.28,0.30
2017-07-31 23:40:00,0,29305,57,0.70,0,0,0,0,22703,39306,4693,29050,51,61,5,61,0.05,1.25,0.40,0.70
2017-07-31 23:50:00,0,26001,52,0.84,0,0,0,0,20054,33380,4039,25530,51,52,0,52,0.30,1.40,0.34,0.83
